Location: Asheville, NC
(35.6000°N, 82.5500°W)
Time: 01:02:11
(UTC-04:00)

CUTE-I - Pass Details

Date: 08 January 2018
Orbit: 811 x 825 km, 98.7° (Epoch: 23 June)

Event Time Altitude Azimuth Distance (km) Brightness Sun altitude
Rises 19:31:07 0° 214° (SW) 3,335 ? -23.3°
Reaches altitude 10° 19:34:54 10° 242° (WSW) 2,405 ? -24.0°
Maximum altitude 19:37:14 13° 268° (W) 2,205 ? -24.5°
Drops below altitude 10° 19:39:35 10° 295° (WNW) 2,408 ? -25.0°
Sets 19:43:24 0° 323° (NW) 3,342 ? -25.7°
